CZ-6A DEB

Satellite information

Favourite Embed

Satellite Type and Status

DEBRISIN ORBIT

Key statistics

Satellite CZ-6A DEB at a glance.

Uptime

1079

Days in orbit

Revolutions

≈ 15.1

Per day

Orbit

SSO

Sun Synchronous Orbit

Inclination

98.5

Latest

Satellite identification and parameters

Extended collection of information and parameters for CZ-6A DEB.

Object identification

Identified? True

Debris? True

Object name: CZ-6A DEB

International designator: 2022-151AER

Object number (NORAD): 56617

Object ID (CCSDS): 56617

Country: PEOPLES REPUBLIC OF CHINA (PRC)

Current information (Y/N): Y

RCS size: SMALL

Orbital parameters

Period: 95.105 minutes

Inclination: 98.5195 deg

SMA: 6901.806 km

Apoapsis: 567.116 km

Periapsis: 480.226 km

RAAN: 15.2033 deg

Eccentricy: 0.00629478

Argument of periapsis: 144.8623 deg

Mean anomaly: 215.6782 deg

Mean motion: 15.14114249 rev/day

Mean motion (dot): 0.00088644 rev/day2

B* drag term: 0.0045878533 1/REarth

Two-line elements (TLE)

Creation date: Oct. 23, 2025, 2:46 a.m.

Reference frame: TEME

Reference center: EARTH

Epoch: Oct. 22, 2025, 4:38 p.m. UTC

TLE line 0: 0 CZ-6A DEB

TLE line 1: 1 56617U 22151AER 25295.69323992 .00088644 00000-0 45879-2 0 9997

TLE line 2: 2 56617 98.5195 15.2033 0062948 144.8623 215.6782 15.14114249134602

Live tracking on map

Real-time ground track for satellite CZ-6A DEB.

In-orbit conjunctions

A list of the most updated potential collisions computed for object CZ-6A DEB.

Target Orbit TCA Probability of collision Miss distance Type
SL-14 R/B LEO 2025-06-01 06:45:43 0.001838084 28.0 (m) ROCKET BODY
COSMOS 2251 DEB LEO 2024-06-23 14:42:42 0.0001829933 115.0 (m) DEBRIS

Associated space launch

Chinese satellite reported for atmospheric/ocean/environmental/spatial parameter research purposes, details TBD.

CZ-6A DEB was lifted into orbit during the mission ‘Long March 6A | Yunhai 3’, on board a Long March 6A space rocket.

The launch took place on Nov. 11, 2022, 10:52 p.m. from Launch Complex 9A.

For more information about the launch, click the button.

Launch to space Long March 6A | Yunhai 3
Long March 6A | Yunhai 3

Agency: N/A

Status: Launch Successful

Launch date: Nov. 11, 2022, 10:52 p.m. UTC

Rocket: Long March 6A

Launch pad: Launch Complex 9A

Location: Taiyuan Satellite Launch Center, People's Republic of China

...

Latest news about this satellite

There are no fresh news available about this satellite. Check back as we update our databases every day.


Newsletter sign-up

Weekly statistics, charts and insights to help you stay on top of the space industry.